Regional Weather Roundup
Issued by NWS

Home | Current Version | Previous Version | Text Only | Print | Product List | Glossary Off
Versions: 1 2 3 4 5 6 7 8 9 10 11 12 13 14 15 16 17 18 19 20 21 22 23 24 25 26 27 28 29 30 31 32 33 34 35 36 37 38 39 40 41 42 43 44 45 46 47 48 49 50

000
ASUS43 KDTX 300210
RWRMI
MICHIGAN HOURLY REGIONAL WEATHER ROUNDUP
NATIONAL WEATHER SERVICE DETROIT/PONTIAC MI
1000 PM EDT THU SEP 29 2016

NOTE: "FAIR" INDICATES FEW OR NO CLOUDS BELOW 12,000 FEET WITH NO
SIGNIFICANT WEATHER AND/OR OBSTRUCTION TO VISIBILITY.

MIZ047>049-052>055-059>063-066>070-074>076-081>083-300300-
SOUTHEAST LOWER MICHIGAN

CITY           SKY/WX    TMP DP  RH WIND       PRES   REMARKS
ADRIAN         CLOUDY    59  59 100 E17G23    30.15F
ALMA           CLOUDY    60  58  94 NE10G17   30.26F
ANN ARBOR      CLOUDY    59  59 100 N9        30.17R
BAD AXE        LGT RAIN  57  56  97 E9G17     30.30F
CARO           CLOUDY    58  57  95 NE9       30.27S
DETROIT CITY   CLOUDY    59  59 100 E16G23    30.18R
DETROIT        CLOUDY    60  59  96 E9        30.19R
FLINT          CLOUDY    59  58  96 NE13      30.21F FOG
GROSSE ILE     CLOUDY    60  58  92 MISG      30.17S
HILLSDALE      RAIN      59  55  88 NE6       30.16S
HOWELL         CLOUDY    59  58  96 NE10      30.19F

CITY           SKY/WX    TMP DP  RH WIND       PRES   REMARKS
JACKSON        CLOUDY    59  59 100 NE14      30.18S
LAMBERTVILLE   CLOUDY    62  59  92 NE7       30.13F
LANSING        CLOUDY    58  55  90 NE15      30.22S
LAPEER         DRIZZLE   59  57  94 NE10G16   30.22F
MASON          CLOUDY    58  57  96 NE8       30.20F
MONROE         CLOUDY    60  60  97 NE9G16    30.14S
MT. CLEMENS    CLOUDY    59  58  97 NE17      30.18R
PONTIAC        CLOUDY    59  56  89 NE14      30.18F
PORT HURON     CLOUDY    59  57  94 NE10G17   30.22F
TRI CITIES     CLOUDY    59  57  93 NE14      30.29R FOG
MIDLAND        DRIZZLE   59  57  94 NE14G20   30.28S
TROY           CLOUDY    60  57  91 NE14G20   30.20R
SAGINAW HB     CLOUDY    59  55  88 NE15      30.27S
$$
MIZ043>046-050>051-056>058-064>065-071>073-077>080-300300-
SOUTHWEST LOWER MICHIGAN

CITY           SKY/WX    TMP DP  RH WIND       PRES   REMARKS
BATTLE CREEK   CLOUDY    59  58  96 NE13      30.19F
BENTON HARBOR  LGT RAIN  60  56  86 NE6       30.21S
BIG RAPIDS     CLOUDY    59  57  93 NE7       30.29S
COLDWATER      RAIN      59  59 100 NE9       30.16F
FREMONT        CLOUDY    59  54  83 NE9       30.27S
HOLLAND        CLOUDY    59  56  89 NE7G18    30.24S
GRAND RAPIDS   CLOUDY    59  55  87 NE13      30.24F
IONIA          CLOUDY    58  55  92 NE13G20   30.23S
KALAMAZOO      CLOUDY    60  55  83 NE8G20    30.21S
LUDINGTON      CLOUDY    61  54  78 NE9       30.30S
MARSHALL       CLOUDY    59  58  98 NE5       30.18F
MOUNT PLEASANT CLOUDY    59  57  95 NE8       30.28S FOG
MUSKEGON       LGT RAIN  60  56  86 NE8       30.26S
SOUTH HAVEN    CLOUDY    60  59  95 NE8       30.22S
$$
MIZ016>042-300300-
NORTHERN LOWER MICHIGAN

CITY           SKY/WX    TMP DP  RH WIND       PRES   REMARKS
ALPENA         CLOUDY    63  53  70 NE9       30.38S
BEAVER ISLAND  CLEAR     57  54  91 NE3       30.40S
BELLAIRE       CLOUDY    59  53  82 N5        30.36S
CADILLAC       CLOUDY    58  53  83 NE13      30.31F
CHARLEVOIX     PTCLDY    62  52  71 NE8       30.40F
FRANKFORT      PTCLDY    62  52  68 NE7       30.34S
GAYLORD        CLOUDY    60  51  72 NE16G23   30.38R
GRAYLING       CLOUDY    61  54  77 NE12G18   30.36S
HARBOR SPRINGS PTCLDY    60  51  74 NE6       30.38S
HOUGHTON LAKE  CLOUDY    58  55  90 NE12      30.34R
MANISTEE       CLOUDY    61  53  75 E12       30.31S
OSCODA         CLOUDY    61  54  77 E15       30.34R
PELLSTON       MOCLDY    57  52  83 NE5       30.40R
ROGERS CITY    CLOUDY    63  54  71 E8G16     30.40S
TRAVERSE CITY  CLOUDY    63  54  72 NE7       30.34S
$$
MIZ007>008-015-300300-
EASTERN UPPER MICHIGAN

CITY           SKY/WX    TMP DP  RH WIND       PRES   REMARKS
KINROSS        CLEAR     57  51  80 NE5       30.42F
MACKINAC ISLAN CLEAR     61  53  75 NE6       30.40S
NEWBERRY       CLEAR     55  54  97 N3        30.41S
S. S. MARIE    CLEAR     60  50  69 NE3       30.42S
MUNISING         N/A     59  58  96 NW8       30.43S
$$
MIZ004>006-011>014-085-300300-
CENTRAL UPPER MICHIGAN

CITY           SKY/WX    TMP DP  RH WIND       PRES   REMARKS
MANISTIQUE     CLEAR     51  49  93 CALM      30.41S
ESCANABA       CLEAR     57  54  89 N5        30.42R
SAWYER-GWINN   PTCLDY    52  52 100 N9        30.45S
$$
MIZ001>003-009>011-084-300300-
WESTERN UPPER MICHIGAN

CITY           SKY/WX    TMP DP  RH WIND       PRES   REMARKS
IRON MOUNTAIN  CLEAR     55  49  80 N5        30.42S
HOUGHTON       CLEAR     50  46  86 CALM      30.47R
COPPER HARBOR    N/A     54  53  97 CALM      30.47S
IRONWOOD       CLOUDY    54  52  93 E10       30.47S
$$

ABBREVIATIONS USED IN REMARKS
   TC - TEMPERATURE IN CELSIUS
  WCI - WIND CHILL INDEX
   HX - HEAT INDEX
  VSB - VISIBILITY




USA.gov is the U.S. government's official web portal to all federal, state and local government web resources and services.